Epoch 2022 Aug. 9.0 TT = JDT 2459800.5 T 2023 Jan. 12.29328 TT Rudenko q 1.7192640 (2000.0) P Q n 0.10296956 Peri. 178.43304 +0.99738886 -0.05971096 a 4.5081339 Node 185.50784 +0.06079914 +0.99780869 e 0.6186307 Incl. 25.03772 +0.03897341 -0.02850308 P 9.57 From 771 observations 2003 Sept. 19-2022 Sept. 5, mean residual 0".7.
m1 = 16.0 + 5 log d + 10.0 log r [ ,-165] ( - 2022 July 31) m1 = -4.5 + 5 log d + 40 log r(t + 400) [-165,-117] (2022 July 31 - 2022 Sept.17) m1 = 12.5 + 5 log d + 10.0 log r(t + 50) [-117, ] (2022 Sept.17 - )